STARLINK-5932 (55943 NORAD) Tracking and Keplerian Element Data

This shows tracking and keplerian element data for the satellite.

Feedback or suggestion? Click here.




ElementValue
Catalog55943
NameSTARLINK-5932
Epoch Orbit794
Epoch Day126.16675986
Epoch Year2023
RAAN42.181
Inclination70.002
Eccentricity0.0003359
Argument of Perigee259.3943
Mean Anonmoly100.6874
Mean Motion15.69922885
Decay Rate5.95E-06
L11 55943U 23037AF 23126.16675986 .00000595 00000+0 67207-5 0 9998
L22 55943 70.0020 42.1810 0003359 259.3943 100.6874 15.69922885 7949



Live tracking and technical data element details for STARLINK-5932 (NORAD 55943). STARLINK-5932 can be tracked NOW for your location showing map with azimuth and elevation plus other details from your city location.







IsCatalogInMostPopularTable: catalog: 55943, numindb: 8
Update: records affected: 1



GetName: 55943 STARLINK-5932

Hit Count: updated at: Tue, 06 Jun 2023 01:43:31 GMT